datetime,inst air temperature
1999-10-14,39.38
1999-10-15,33.62
1999-10-16,36.5
1999-10-17,35.06
1999-10-18,33.08
1999-10-19,46.58
1999-10-20,39.56
1999-10-21,40.64
1999-10-22,41.36
1999-10-23,39.38
1999-10-24,38.3
1999-10-25,33.26
1999-10-26,36.32
1999-10-27,40.28
1999-10-28,42.44
1999-10-29,28.4
1999-10-30,33.26
1999-10-31,37.94
1999-11-01,37.76
1999-11-02,34.34
1999-11-03,37.22
1999-11-04,36.5
1999-11-05,42.62
1999-11-06,39.02
1999-11-07,44.42
1999-11-08,41.18
1999-11-09,35.42
1999-11-10,35.78
1999-11-11,43.7
1999-11-12,40.82
1999-11-13,33.98
1999-11-14,38.3
1999-11-15,41.72
1999-11-16,41.9
1999-11-17,33.62
1999-11-18,27.14
1999-11-19,40.46
1999-11-20,36.86
1999-11-21,34.52
1999-11-22,18.14
1999-11-23,21.74
1999-11-24,25.88
1999-11-25,38.48
1999-11-26,40.46
1999-11-27,39.02
1999-11-28,28.4
1999-11-29,45.14
1999-11-30,42.26
1999-12-01,29.66
1999-12-02,31.82
1999-12-03,18.86
1999-12-04,22.1
1999-12-05,26.96
1999-12-06,27.86
1999-12-07,31.46
1999-12-08,23.36
1999-12-09,29.66
1999-12-10,21.92
1999-12-11,23.18
1999-12-12,30.56
1999-12-13,32.0
1999-12-14,10.22
1999-12-15,28.4
1999-12-16,32.36
1999-12-17,35.24
1999-12-18,39.38
1999-12-19,26.24
1999-12-20,26.96
1999-12-21,26.24
1999-12-22,28.58
1999-12-23,24.98
1999-12-24,28.4
1999-12-25,33.08
1999-12-26,38.3
1999-12-27,31.82
1999-12-28,28.04
1999-12-29,24.8
1999-12-30,23.72
1999-12-31,24.44
2000-01-01,22.1
2000-01-02,16.16
2000-01-03,28.58
2000-01-04,32.36
2000-01-05,22.82
2000-01-06,12.2
2000-01-07,30.02
2000-01-08,28.22
2000-01-09,25.34
2000-01-10,32.9
2000-01-11,34.88
2000-01-12,26.24
2000-01-13,28.94
2000-01-14,38.48
2000-01-15,34.34
2000-01-16,40.46
2000-01-17,27.5
2000-01-18,32.54
2000-01-19,35.42
2000-01-20,38.84
2000-01-21,33.26
2000-01-22,31.1
2000-01-23,28.58
2000-01-24,33.8
2000-01-25,33.44
2000-01-26,33.62
2000-01-27,23.36
2000-01-28,17.42
2000-01-29,18.14
2000-01-30,23.9
2000-01-31,29.12
2000-02-01,31.82
2000-02-02,37.4
2000-02-03,42.26
2000-02-04,33.98
2000-02-05,35.06
2000-02-06,33.26
2000-02-07,34.88
2000-02-08,38.48
2000-02-09,33.8
2000-02-10,36.68
2000-02-11,34.88
2000-02-12,33.8
2000-02-13,33.08
2000-02-14,36.68
2000-02-15,30.2
2000-02-16,33.08
2000-02-17,30.92
2000-02-18,23.72
2000-02-19,22.64
2000-02-20,35.96
2000-02-21,32.9
2000-02-22,35.42
2000-02-23,32.72
2000-02-24,24.98
2000-02-25,26.06
2000-02-26,32.0
2000-02-27,37.04
2000-02-28,32.54
2000-02-29,34.16
2000-03-01,22.28
2000-03-02,32.72
2000-03-03,31.82
2000-03-04,30.2
2000-03-05,33.8
2000-03-06,30.56
2000-03-07,29.3
2000-03-08,31.64
2000-03-09,25.52
2000-03-10,28.76
2000-03-11,34.7
2000-03-12,25.34
2000-03-13,29.12
2000-03-14,40.28
2000-03-15,
2000-03-16,35.6
2000-03-17,27.32
2000-03-18,35.6
2000-03-19,44.42
2000-03-20,25.7
2000-03-21,25.34
2000-03-22,32.54
2000-03-23,37.76
2000-03-24,25.88
2000-03-25,30.74
2000-03-26,29.84
2000-03-27,32.36
2000-03-28,33.8
2000-03-29,26.6
2000-03-30,31.1
2000-03-31,32.36
2000-04-01,35.06
2000-04-02,36.86
2000-04-03,38.48
2000-04-04,47.3
2000-04-05,35.6
2000-04-06,33.26
2000-04-07,31.46
2000-04-08,41.9
2000-04-09,34.52
2000-04-10,30.74
2000-04-11,37.22
2000-04-12,38.48
2000-04-13,49.1
2000-04-14,39.02
2000-04-15,39.38
2000-04-16,38.66
2000-04-17,39.92
2000-04-18,35.24
2000-04-19,34.34
2000-04-20,39.56
2000-04-21,37.76
2000-04-22,46.76
2000-04-23,34.52
2000-04-24,28.04
2000-04-25,44.42
2000-04-26,33.26
2000-04-27,41.18
2000-04-28,33.98
2000-04-29,27.32
2000-04-30,37.94
2000-05-01,51.26
2000-05-02,39.92
2000-05-03,39.74
2000-05-04,46.04
2000-05-05,32.54
2000-05-06,38.84
2000-05-07,33.8
2000-05-08,39.38
2000-05-09,43.16
2000-05-10,38.48
2000-05-11,30.56
2000-05-12,26.6
2000-05-13,35.42
2000-05-14,39.92
2000-05-15,40.46
2000-05-16,37.94
2000-05-17,40.82
2000-05-18,35.96
2000-05-19,49.64
2000-05-20,45.68
2000-05-21,46.4
2000-05-22,48.02
2000-05-23,46.76
2000-05-24,47.12
2000-05-25,49.46
2000-05-26,42.98
2000-05-27,55.58
2000-05-28,53.96
2000-05-29,37.58
2000-05-30,35.96
2000-05-31,29.48
2000-06-01,44.6
2000-06-02,44.42
2000-06-03,42.62
2000-06-04,44.96
2000-06-05,48.56
2000-06-06,48.38
2000-06-07,43.52
2000-06-08,46.94
2000-06-09,36.14
2000-06-10,44.78
2000-06-11,33.44
2000-06-12,52.52
2000-06-13,39.2
2000-06-14,60.08
2000-06-15,52.7
2000-06-16,44.96
2000-06-17,52.52
2000-06-18,48.02
2000-06-19,50.0
2000-06-20,54.32
2000-06-21,52.88
2000-06-22,54.5
2000-06-23,52.16
2000-06-24,51.8
2000-06-25,51.8
2000-06-26,62.6
2000-06-27,63.68
2000-06-28,51.08
2000-06-29,56.84
2000-06-30,61.7
2000-07-01,51.98
2000-07-02,52.34
2000-07-03,41.9
2000-07-04,39.38
2000-07-05,46.94
2000-07-06,41.0
2000-07-07,44.96
2000-07-08,46.58
2000-07-09,45.32
2000-07-10,49.46
2000-07-11,50.54
2000-07-12,54.32
2000-07-13,55.76
2000-07-14,48.92
2000-07-15,50.0
2000-07-16,56.3
2000-07-17,56.84
2000-07-18,48.92
2000-07-19,48.74
2000-07-20,53.78
2000-07-21,53.24
2000-07-22,
2000-07-23,49.46
2000-07-24,50.9
2000-07-25,53.24
2000-07-26,51.44
2000-07-27,48.92
2000-07-28,53.6
2000-07-29,54.68
2000-07-30,57.38
2000-07-31,55.58
2000-08-01,59.0
2000-08-02,62.24
2000-08-03,59.36
2000-08-04,60.26
2000-08-05,53.96
2000-08-06,61.88
2000-08-07,57.92
2000-08-08,57.02
2000-08-09,55.22
2000-08-10,52.52
2000-08-11,44.42
2000-08-12,48.2
2000-08-13,50.0
2000-08-14,45.68
2000-08-15,49.28
2000-08-16,47.66
2000-08-17,49.82
2000-08-18,46.58
2000-08-19,44.06
2000-08-20,45.86
2000-08-21,56.66
2000-08-22,61.52
2000-08-23,50.9
2000-08-24,48.56
2000-08-25,45.14
2000-08-26,48.02
2000-08-27,47.84
2000-08-28,48.56
2000-08-29,51.44
2000-08-30,54.5
2000-08-31,50.72
2000-09-01,49.82
2000-09-02,37.04
2000-09-03,35.06
2000-09-04,42.08
2000-09-05,39.92
2000-09-06,33.98
2000-09-07,47.12
2000-09-08,41.0
2000-09-09,41.36
2000-09-10,40.1
2000-09-11,46.58
2000-09-12,49.46
2000-09-13,48.2
2000-09-14,60.62
2000-09-15,52.34
2000-09-16,43.7
2000-09-17,43.16
2000-09-18,59.0
2000-09-19,63.32
2000-09-20,58.28
2000-09-21,44.24
2000-09-22,46.58
2000-09-23,34.34
2000-09-24,42.44
2000-09-25,37.76
2000-09-26,37.76
2000-09-27,40.28
2000-09-28,45.32
2000-09-29,43.7
2000-09-30,44.42
2000-10-01,47.12
2000-10-02,38.84
2000-10-03,43.16
2000-10-04,49.46
2000-10-05,48.02
2000-10-06,51.98
2000-10-07,45.14
2000-10-08,41.0
2000-10-09,43.52
2000-10-10,40.82
2000-10-11,34.34
2000-10-12,32.72
2000-10-13,42.44
2000-10-14,33.98
2000-10-15,33.8
2000-10-16,33.08
2000-10-17,36.5
2000-10-18,35.96
2000-10-19,35.78
2000-10-20,39.02
2000-10-21,35.96
2000-10-22,30.2
2000-10-23,34.52
2000-10-24,34.34
2000-10-25,38.3
2000-10-26,37.4
2000-10-27,28.4
2000-10-28,41.54
2000-10-29,33.98
2000-10-30,33.44
2000-10-31,27.14
2000-11-01,27.32
2000-11-02,35.96
2000-11-03,32.72
2000-11-04,31.1
2000-11-05,28.76
2000-11-06,35.6
2000-11-07,29.84
2000-11-08,36.32
2000-11-09,27.68
2000-11-10,19.94
2000-11-11,22.1
2000-11-12,15.44
2000-11-13,20.48
2000-11-14,25.34
2000-11-15,27.86
2000-11-16,24.8
2000-11-17,12.02
2000-11-18,19.04
2000-11-19,23.18
2000-11-20,30.56
2000-11-21,33.08
2000-11-22,26.78
2000-11-23,22.28
2000-11-24,33.08
2000-11-25,28.58
2000-11-26,35.06
2000-11-27,32.54
2000-11-28,31.46
2000-11-29,40.64
2000-11-30,31.46
2000-12-01,26.96
2000-12-02,27.32
2000-12-03,29.12
2000-12-04,30.74
2000-12-05,28.04
2000-12-06,35.42
2000-12-07,28.4
2000-12-08,27.5
2000-12-09,33.08
2000-12-10,33.8
2000-12-11,20.12
2000-12-12,29.66
2000-12-13,28.04
2000-12-14,31.28
2000-12-15,33.98
2000-12-16,26.42
2000-12-17,32.54
2000-12-18,15.98
2000-12-19,27.32
2000-12-20,24.44
2000-12-21,36.5
2000-12-22,33.98
2000-12-23,28.22
2000-12-24,32.0
2000-12-25,18.68
2000-12-26,25.88
2000-12-27,29.84
2000-12-28,24.26
2000-12-29,28.58
2000-12-30,27.32
2000-12-31,26.6
2001-01-01,23.36
2001-01-02,32.72
2001-01-03,32.18
2001-01-04,31.64
2001-01-05,31.82
2001-01-06,30.38
2001-01-07,33.08
2001-01-08,41.18
2001-01-09,32.36
2001-01-10,28.76
2001-01-11,32.72
2001-01-12,28.58
2001-01-13,21.74
2001-01-14,15.98
2001-01-15,21.74
2001-01-16,20.84
2001-01-17,5.36
2001-01-18,19.4
2001-01-19,35.6
2001-01-20,22.82
2001-01-21,34.52
2001-01-22,37.22
2001-01-23,29.12
2001-01-24,35.06
2001-01-25,27.68
2001-01-26,28.04
2001-01-27,25.88
2001-01-28,17.06
2001-01-29,31.28
2001-01-30,10.76
2001-01-31,13.64
2001-02-01,25.34
2001-02-02,35.24
2001-02-03,33.62
2001-02-04,35.42
2001-02-05,28.94
2001-02-06,24.08
2001-02-07,15.08
2001-02-08,7.88
2001-02-09,27.14
2001-02-10,25.88
2001-02-11,24.26
2001-02-12,16.7
2001-02-13,20.84
2001-02-14,18.5
2001-02-15,17.06
2001-02-16,30.2
2001-02-17,30.56
2001-02-18,34.16
2001-02-19,32.0
2001-02-20,28.22
2001-02-21,31.64
2001-02-22,31.82
2001-02-23,27.68
2001-02-24,23.18
2001-02-25,28.22
2001-02-26,24.62
2001-02-27,28.76
2001-02-28,27.14
2001-03-01,22.28
2001-03-02,30.92
2001-03-03,17.06
2001-03-04,30.02
2001-03-05,36.68
2001-03-06,37.4
2001-03-07,38.66
2001-03-08,34.16
2001-03-09,25.16
2001-03-10,23.0
2001-03-11,25.52
2001-03-12,30.38
2001-03-13,29.3
2001-03-14,30.56
2001-03-15,26.06
2001-03-16,28.76
2001-03-17,28.94
2001-03-18,37.22
2001-03-19,44.42
2001-03-20,37.58
2001-03-21,41.0
2001-03-22,34.34
2001-03-23,35.78
2001-03-24,36.68
2001-03-25,41.9
2001-03-26,28.22
2001-03-27,27.5
2001-03-28,44.24
2001-03-29,40.46
2001-03-30,32.0
2001-03-31,32.0
2001-04-01,43.16
2001-04-02,32.0
2001-04-03,26.06
2001-04-04,20.12
2001-04-05,30.02
2001-04-06,39.56
2001-04-07,28.4
2001-04-08,21.2
2001-04-09,23.72
2001-04-10,22.46
2001-04-11,34.16
2001-04-12,26.78
2001-04-13,32.54
2001-04-14,25.52
2001-04-15,28.76
2001-04-16,36.32
2001-04-17,42.8
2001-04-18,41.54
2001-04-19,33.62
2001-04-20,32.54
2001-04-21,29.3
2001-04-22,29.48
2001-04-23,42.8
2001-04-24,35.96
2001-04-25,45.68
2001-04-26,42.62
2001-04-27,40.82
2001-04-28,47.12
2001-04-29,27.32
2001-04-30,36.32
2001-05-01,39.92
2001-05-02,30.56
2001-05-03,35.24
2001-05-04,33.08
2001-05-05,49.28
2001-05-06,33.08
2001-05-07,39.02
2001-05-08,44.96
2001-05-09,47.84
2001-05-10,46.04
2001-05-11,42.62
2001-05-12,51.62
2001-05-13,44.96
2001-05-14,48.38
2001-05-15,44.24
2001-05-16,45.5
2001-05-17,37.58
2001-05-18,41.0
2001-05-19,49.46
2001-05-20,52.16
2001-05-21,50.54
2001-05-22,56.84
2001-05-23,50.0
2001-05-24,47.66
2001-05-25,53.96
2001-05-26,53.96
2001-05-27,52.52
2001-05-28,45.14
2001-05-29,41.9
2001-05-30,42.62
2001-05-31,59.54
2001-06-01,61.34
2001-06-02,44.96
2001-06-03,36.14
2001-06-04,28.58
2001-06-05,44.78
2001-06-06,40.64
2001-06-07,42.26
2001-06-08,47.3
2001-06-09,52.34
2001-06-10,43.34
2001-06-11,43.7
2001-06-12,45.86
2001-06-13,38.3
2001-06-14,41.0
2001-06-15,42.98
2001-06-16,47.48
2001-06-17,46.4
2001-06-18,41.36
2001-06-19,53.78
2001-06-20,48.74
2001-06-21,54.5
2001-06-22,51.62
2001-06-23,55.04
2001-06-24,44.78
2001-06-25,39.56
2001-06-26,45.5
2001-06-27,53.24
2001-06-28,43.34
2001-06-29,44.06
2001-06-30,51.98
2001-07-01,50.72
2001-07-02,50.18
2001-07-03,55.94
2001-07-04,59.72
2001-07-05,70.34
2001-07-06,56.12
2001-07-07,52.52
2001-07-08,55.04
2001-07-09,53.24
2001-07-10,64.04
2001-07-11,54.32
2001-07-12,46.22
2001-07-13,50.18
2001-07-14,51.26
2001-07-15,48.92
2001-07-16,55.22
2001-07-17,46.04
2001-07-18,44.6
2001-07-19,55.22
2001-07-20,47.84
2001-07-21,45.14
2001-07-22,46.22
2001-07-23,53.78
2001-07-24,51.8
2001-07-25,63.5
2001-07-26,62.96
2001-07-27,53.42
2001-07-28,58.82
2001-07-29,47.84
2001-07-30,53.06
2001-07-31,43.7
2001-08-01,46.04
2001-08-02,51.44
2001-08-03,49.82
2001-08-04,51.8
2001-08-05,46.76
2001-08-06,52.7
2001-08-07,54.32
2001-08-08,62.24
2001-08-09,70.34
2001-08-10,60.08
2001-08-11,58.1
2001-08-12,53.24
2001-08-13,51.8
2001-08-14,51.8
2001-08-15,51.8
2001-08-16,52.52
2001-08-17,54.86
2001-08-18,51.62
2001-08-19,46.94
2001-08-20,50.18
2001-08-21,49.46
2001-08-22,50.18
2001-08-23,55.76
2001-08-24,44.42
2001-08-25,46.76
2001-08-26,51.98
2001-08-27,53.78
2001-08-28,51.98
2001-08-29,55.94
2001-08-30,54.5
2001-08-31,51.98
2001-09-01,51.08
2001-09-02,48.56
2001-09-03,53.24
2001-09-04,48.92
2001-09-05,48.74
2001-09-06,33.44
2001-09-07,40.82
2001-09-08,51.08
2001-09-09,55.22
2001-09-10,49.46
2001-09-11,46.04
2001-09-12,50.9
2001-09-13,50.0
2001-09-14,42.08
2001-09-15,51.98
2001-09-16,45.32
2001-09-17,44.24
2001-09-18,44.78
2001-09-19,45.14
2001-09-20,42.98
2001-09-21,42.62
2001-09-22,44.24
2001-09-23,50.0
2001-09-24,46.04
2001-09-25,54.86
2001-09-26,37.76
2001-09-27,42.44
2001-09-28,42.44
2001-09-29,36.14
2001-09-30,48.2
2001-10-01,47.48
2001-10-02,47.3
2001-10-03,46.04
2001-10-04,44.06
2001-10-05,42.8
2001-10-06,41.54
2001-10-07,38.66
2001-10-08,50.18
2001-10-09,29.12
2001-10-10,32.72
2001-10-11,46.76
2001-10-12,28.94
2001-10-13,33.62
2001-10-14,36.14
2001-10-15,43.34
2001-10-16,43.34
2001-10-17,46.94
2001-10-18,39.74
2001-10-19,41.72
2001-10-20,42.62
2001-10-21,39.38
2001-10-22,44.6
2001-10-23,48.2
2001-10-24,22.46
2001-10-25,27.5
2001-10-26,43.34
2001-10-27,35.78
2001-10-28,43.7
2001-10-29,41.72
2001-10-30,42.8
2001-10-31,38.3
2001-11-01,34.52
2001-11-02,28.76
2001-11-03,32.54
2001-11-04,34.88
2001-11-05,32.9
2001-11-06,31.1
2001-11-07,32.0
2001-11-08,33.62
2001-11-09,29.84
2001-11-10,33.98
2001-11-11,37.04
2001-11-12,45.14
2001-11-13,37.58
2001-11-14,39.38
2001-11-15,33.98
2001-11-16,39.2
2001-11-17,37.04
2001-11-18,24.44
2001-11-19,36.68
2001-11-20,39.56
2001-11-21,37.22
2001-11-22,41.9
2001-11-23,28.58
2001-11-24,32.36
2001-11-25,27.5
2001-11-26,27.14
2001-11-27,14.9
2001-11-28,26.06
2001-11-29,27.14
2001-11-30,17.06
2001-12-01,31.1
2001-12-02,31.1
2001-12-03,29.3
2001-12-04,10.76
2001-12-05,28.94
2001-12-06,34.88
2001-12-07,27.14
2001-12-08,25.16
2001-12-09,32.9
2001-12-10,9.86
2001-12-11,15.26
2001-12-12,21.92
2001-12-13,30.38
2001-12-14,31.28
2001-12-15,19.04
2001-12-16,30.74
2001-12-17,33.98
2001-12-18,26.6
2001-12-19,32.18
2001-12-20,30.02
2001-12-21,26.78
2001-12-22,23.36
2001-12-23,29.48
2001-12-24,19.22
2001-12-25,20.84
2001-12-26,32.72
2001-12-27,34.34
2001-12-28,35.6
2001-12-29,36.32
2001-12-30,35.24
2001-12-31,34.88
2002-01-01,33.62
2002-01-02,37.04
2002-01-03,33.8
2002-01-04,20.84
2002-01-05,29.48
2002-01-06,34.88
2002-01-07,36.32
2002-01-08,31.64
2002-01-09,32.0
2002-01-10,26.06
2002-01-11,31.64
2002-01-12,39.74
2002-01-13,19.4
2002-01-14,27.5
2002-01-15,24.26
2002-01-16,13.46
2002-01-17,22.46
2002-01-18,13.82
2002-01-19,14.72
2002-01-20,23.36
2002-01-21,32.72
2002-01-22,18.32
2002-01-23,17.6
2002-01-24,11.84
2002-01-25,32.54
2002-01-26,33.08
2002-01-27,18.5
2002-01-28,1.22
2002-01-29,6.98
2002-01-30,1.76
2002-01-31,9.32
2002-02-01,24.62
2002-02-02,17.42
2002-02-03,20.48
2002-02-04,17.96
2002-02-05,25.16
2002-02-06,21.92
2002-02-07,33.62
2002-02-08,26.6
2002-02-09,16.52
2002-02-10,27.32
2002-02-11,27.68
2002-02-12,32.9
2002-02-13,35.6
2002-02-14,26.78
2002-02-15,29.12
2002-02-16,32.0
2002-02-17,34.34
2002-02-18,32.72
2002-02-19,32.72
2002-02-20,33.62
2002-02-21,34.7
2002-02-22,33.62
2002-02-23,40.46
2002-02-24,34.88
2002-02-25,25.52
2002-02-26,32.72
2002-02-27,35.96
2002-02-28,26.96
2002-03-01,21.74
2002-03-02,26.06
2002-03-03,28.76
2002-03-04,23.9
2002-03-05,28.58
2002-03-06,34.34
2002-03-07,33.44
2002-03-08,12.02
2002-03-09,20.48
2002-03-10,30.56
2002-03-11,34.88
2002-03-12,38.48
2002-03-13,25.52
2002-03-14,16.52
2002-03-15,19.04
2002-03-16,26.42
2002-03-17,22.46
2002-03-18,7.52
2002-03-19,32.72
2002-03-20,29.48
2002-03-21,35.24
2002-03-22,35.96
2002-03-23,32.0
2002-03-24,33.26
2002-03-25,27.5
2002-03-26,27.32
2002-03-27,29.84
2002-03-28,30.56
2002-03-29,32.54
2002-03-30,30.2
2002-03-31,30.02
2002-04-01,32.0
2002-04-02,39.74
2002-04-03,39.74
2002-04-04,41.54
2002-04-05,47.84
2002-04-06,30.74
2002-04-07,33.98
2002-04-08,34.7
2002-04-09,46.94
2002-04-10,40.46
2002-04-11,44.06
2002-04-12,34.52
2002-04-13,37.04
2002-04-14,48.38
2002-04-15,35.24
2002-04-16,26.96
2002-04-17,28.76
2002-04-18,24.62
2002-04-19,33.26
2002-04-20,29.84
2002-04-21,29.66
2002-04-22,31.28
2002-04-23,36.86
2002-04-24,40.64
2002-04-25,35.06
2002-04-26,44.6
2002-04-27,36.14
2002-04-28,32.54
2002-04-29,36.5
2002-04-30,34.88
2002-05-01,33.62
2002-05-02,36.5
2002-05-03,37.4
2002-05-04,31.1
2002-05-05,39.38
2002-05-06,41.0
2002-05-07,37.58
2002-05-08,33.62
2002-05-09,34.7
2002-05-10,33.98
2002-05-11,32.36
2002-05-12,35.78
2002-05-13,39.2
2002-05-14,35.96
2002-05-15,34.88
2002-05-16,34.52
2002-05-17,39.74
2002-05-18,50.72
2002-05-19,41.72
2002-05-20,38.48
2002-05-21,34.52
2002-05-22,34.7
2002-05-23,30.02
2002-05-24,35.06
2002-05-25,43.16
2002-05-26,46.76
2002-05-27,50.18
2002-05-28,49.64
2002-05-29,55.04
2002-05-30,51.8
2002-05-31,43.7
2002-06-01,49.82
2002-06-02,46.58
2002-06-03,41.18
2002-06-04,45.86
2002-06-05,48.74
2002-06-06,42.44
2002-06-07,42.98
2002-06-08,33.26
2002-06-09,29.84
2002-06-10,40.46
2002-06-11,37.22
2002-06-12,47.48
2002-06-13,48.74
2002-06-14,53.24
2002-06-15,48.56
2002-06-16,48.2
2002-06-17,47.3
2002-06-18,53.24
2002-06-19,39.2
2002-06-20,48.92
2002-06-21,59.54
2002-06-22,52.34
2002-06-23,50.18
2002-06-24,49.46
2002-06-25,53.6
2002-06-26,57.74
2002-06-27,57.74
2002-06-28,58.46
2002-06-29,53.6
2002-06-30,50.0
2002-07-01,47.48
2002-07-02,48.02
2002-07-03,59.72
2002-07-04,49.46
2002-07-05,47.3
2002-07-06,51.98
2002-07-07,54.86
2002-07-08,54.68
2002-07-09,61.34
2002-07-10,56.66
2002-07-11,62.06
2002-07-12,71.96
2002-07-13,63.5
2002-07-14,62.06
2002-07-15,56.66
2002-07-16,52.88
2002-07-17,51.8
2002-07-18,52.88
2002-07-19,56.48
2002-07-20,53.42
2002-07-21,63.68
2002-07-22,63.68
2002-07-23,-45.76
2002-07-24,-46.3
2002-07-25,51.98
2002-07-26,50.9
2002-07-27,55.4
2002-07-28,48.56
2002-07-29,59.36
2002-07-30,54.32
2002-07-31,51.8
2002-08-01,54.5
2002-08-02,52.52
2002-08-03,48.74
2002-08-04,50.36
2002-08-05,36.5
2002-08-06,38.84
2002-08-07,45.68
2002-08-08,42.98
2002-08-09,61.16
2002-08-10,52.34
2002-08-11,53.6
2002-08-12,55.22
2002-08-13,69.26
2002-08-14,57.2
2002-08-15,58.46
2002-08-16,54.5
2002-08-17,55.94
2002-08-18,49.1
2002-08-19,49.1
2002-08-20,45.86
2002-08-21,39.92
2002-08-22,44.06
2002-08-23,46.76
2002-08-24,52.7
2002-08-25,48.02
2002-08-26,46.22
2002-08-27,55.22
2002-08-28,57.02
2002-08-29,51.44
2002-08-30,55.76
2002-08-31,47.48
2002-09-01,45.86
2002-09-02,53.06
2002-09-03,52.7
2002-09-04,53.78
2002-09-05,43.7
2002-09-06,33.98
2002-09-07,33.44
2002-09-08,35.06
2002-09-09,39.92
2002-09-10,50.18
2002-09-11,47.66
2002-09-12,47.66
2002-09-13,51.62
2002-09-14,48.74
2002-09-15,48.38
2002-09-16,52.52
2002-09-17,51.44
2002-09-18,39.74
2002-09-19,41.72
2002-09-20,46.76
2002-09-21,51.44
2002-09-22,54.14
2002-09-23,50.0
2002-09-24,49.1
2002-09-25,45.14
2002-09-26,44.96
2002-09-27,55.58
2002-09-28,42.8
2002-09-29,36.86
2002-09-30,
2002-10-01,27.14
2002-10-02,28.22
2002-10-03,31.1
2002-10-04,
2002-10-05,35.6
2002-10-06,48.56
2002-10-07,46.76
2002-10-08,41.18
2002-10-09,36.86
2002-10-10,38.3
2002-10-11,28.22
2002-10-12,40.28
2002-10-13,35.24
2002-10-14,42.08
2002-10-15,51.98
2002-10-16,50.9
2002-10-17,48.02
2002-10-18,38.3
2002-10-19,34.7
2002-10-20,35.96
2002-10-21,43.34
2002-10-22,33.08
2002-10-23,41.9
2002-10-24,29.84
2002-10-25,31.28
2002-10-26,37.22
2002-10-27,27.68
2002-10-28,29.12
2002-10-29,24.98
2002-10-30,26.24
2002-10-31,14.0
2002-11-01,22.82
2002-11-02,17.06
2002-11-03,18.86
2002-11-04,22.64
2002-11-05,27.68
2002-11-06,28.04
2002-11-07,48.02
2002-11-08,
2002-11-09,
2002-11-10,
2002-11-11,
2002-11-12,
2002-11-13,
2002-11-14,30.92
2002-11-15,27.86
2002-11-16,32.0
2002-11-17,31.64
2002-11-18,28.04
2002-11-19,38.66
2002-11-20,40.64
2002-11-21,39.56
2002-11-22,35.24
2002-11-23,30.92
2002-11-24,30.2
2002-11-25,28.58
2002-11-26,27.14
2002-11-27,31.82
2002-11-28,30.74
2002-11-29,33.44
2002-11-30,32.9
2002-12-01,30.92
2002-12-02,25.88
2002-12-03,26.06
2002-12-04,28.58
2002-12-05,29.3
2002-12-06,38.12
2002-12-07,27.5
2002-12-08,26.78
2002-12-09,35.06
2002-12-10,35.96
2002-12-11,34.7
2002-12-12,36.5
2002-12-13,39.56
2002-12-14,40.82
2002-12-15,33.62
2002-12-16,38.3
2002-12-17,28.76
2002-12-18,24.08
2002-12-19,26.24
2002-12-20,29.66
2002-12-21,31.28
2002-12-22,21.02
2002-12-23,14.54
2002-12-24,12.02
2002-12-25,25.7
2002-12-26,30.56
2002-12-27,34.52
2002-12-28,38.48
2002-12-29,30.38
2002-12-30,30.02
2002-12-31,33.62
2003-01-01,28.94
2003-01-02,32.18
2003-01-03,33.26
2003-01-04,39.02
2003-01-05,34.88
2003-01-06,34.88
2003-01-07,28.94
2003-01-08,30.02
2003-01-09,29.48
2003-01-10,32.9
2003-01-11,35.96
2003-01-12,35.6
2003-01-13,38.3
2003-01-14,39.74
2003-01-15,35.42
2003-01-16,30.38
2003-01-17,30.56
2003-01-18,38.12
2003-01-19,32.36
2003-01-20,30.74
2003-01-21,29.48
2003-01-22,34.34
2003-01-23,40.46
2003-01-24,29.66
2003-01-25,37.22
2003-01-26,39.38
2003-01-27,45.32
2003-01-28,29.12
2003-01-29,31.82
2003-01-30,40.64
2003-01-31,43.34
2003-02-01,44.96
2003-02-02,29.48
2003-02-03,25.34
2003-02-04,23.0
2003-02-05,23.36
2003-02-06,26.42
2003-02-07,22.82
2003-02-08,20.48
2003-02-09,20.48
2003-02-10,25.16
2003-02-11,29.48
2003-02-12,33.8
2003-02-13,38.84
2003-02-14,38.12
2003-02-15,33.44
2003-02-16,33.98
2003-02-17,30.02
2003-02-18,23.9
2003-02-19,29.48
2003-02-20,32.72
2003-02-21,34.52
2003-02-22,35.96
2003-02-23,25.52
2003-02-24,32.36
2003-02-25,23.9
2003-02-26,19.22
2003-02-27,24.44
2003-02-28,19.58
2003-03-01,29.48
2003-03-02,23.18
2003-03-03,34.7
2003-03-04,22.1
2003-03-05,27.86
2003-03-06,37.4
2003-03-07,30.38
2003-03-08,29.66
2003-03-09,37.22
2003-03-10,38.48
2003-03-11,31.46
2003-03-12,41.18
2003-03-13,44.78
2003-03-14,40.28
2003-03-15,38.3
2003-03-16,31.64
2003-03-17,32.36
2003-03-18,26.06
2003-03-19,26.6
2003-03-20,32.9
2003-03-21,36.14
2003-03-22,43.52
2003-03-23,32.72
2003-03-24,25.16
2003-03-25,31.1
2003-03-26,40.1
2003-03-27,29.12
2003-03-28,29.12
2003-03-29,28.76
2003-03-30,34.88
2003-03-31,40.64
2003-04-01,40.46
2003-04-02,29.48
2003-04-03,22.64
2003-04-04,29.12
2003-04-05,26.78
2003-04-06,30.56
2003-04-07,33.44
2003-04-08,32.9
2003-04-09,39.92
2003-04-10,35.42
2003-04-11,38.48
2003-04-12,35.96
2003-04-13,32.36
2003-04-14,32.0
2003-04-15,29.12
2003-04-16,30.56
2003-04-17,34.16
2003-04-18,31.28
2003-04-19,31.1
2003-04-20,31.28
2003-04-21,39.02
2003-04-22,35.06
2003-04-23,30.38
2003-04-24,39.74
2003-04-25,28.76
2003-04-26,29.66
2003-04-27,27.86
2003-04-28,33.08
2003-04-29,34.16
2003-04-30,33.8
2003-05-01,29.3
2003-05-02,36.14
2003-05-03,40.1
2003-05-04,33.8
2003-05-05,31.1
2003-05-06,28.76
2003-05-07,34.88
2003-05-08,33.44
2003-05-09,33.8
2003-05-10,37.04
2003-05-11,36.68
2003-05-12,40.82
2003-05-13,39.92
2003-05-14,40.82
2003-05-15,41.18
2003-05-16,36.5
2003-05-17,31.28
2003-05-18,27.5
2003-05-19,35.42
2003-05-20,34.52
2003-05-21,42.62
2003-05-22,46.76
2003-05-23,48.02
2003-05-24,50.9
2003-05-25,52.52
2003-05-26,46.94
2003-05-27,41.36
2003-05-28,52.52
2003-05-29,50.18
2003-05-30,54.68
2003-05-31,47.3
2003-06-01,42.8
2003-06-02,45.32
2003-06-03,57.56
2003-06-04,60.62
2003-06-05,58.1
2003-06-06,60.26
2003-06-07,52.7
2003-06-08,53.06
2003-06-09,50.36
2003-06-10,45.14
2003-06-11,43.7
2003-06-12,46.22
2003-06-13,46.94
2003-06-14,50.18
2003-06-15,46.22
2003-06-16,48.92
2003-06-17,63.5
2003-06-18,57.74
2003-06-19,50.0
2003-06-20,47.3
2003-06-21,41.0
2003-06-22,39.92
2003-06-23,42.44
2003-06-24,39.92
2003-06-25,52.52
2003-06-26,55.4
2003-06-27,52.88
2003-06-28,59.36
2003-06-29,54.5
2003-06-30,60.26
2003-07-01,49.28
2003-07-02,46.76
2003-07-03,48.02
2003-07-04,46.76
2003-07-05,51.08
2003-07-06,52.16
2003-07-07,51.62
2003-07-08,50.9
2003-07-09,46.4
2003-07-10,53.78
2003-07-11,50.9
2003-07-12,53.42
2003-07-13,51.26
2003-07-14,48.56
2003-07-15,53.6
2003-07-16,53.06
2003-07-17,51.08
2003-07-18,55.58
2003-07-19,56.12
2003-07-20,63.14
2003-07-21,63.32
2003-07-22,64.04
2003-07-23,65.48
2003-07-24,60.26
2003-07-25,57.38
2003-07-26,57.74
2003-07-27,52.52
2003-07-28,59.0
2003-07-29,59.72
2003-07-30,64.22
2003-07-31,63.86
2003-08-01,64.76
2003-08-02,64.76
2003-08-03,55.58
2003-08-04,48.92
2003-08-05,51.8
2003-08-06,47.3
2003-08-07,49.64
2003-08-08,46.94
2003-08-09,46.22
2003-08-10,46.76
2003-08-11,47.12
2003-08-12,44.42
2003-08-13,45.68
2003-08-14,46.76
2003-08-15,58.46
2003-08-16,48.74
2003-08-17,49.82
2003-08-18,53.06
2003-08-19,
2003-08-20,53.78
2003-08-21,52.88
2003-08-22,51.62
2003-08-23,44.6
2003-08-24,46.22
2003-08-25,50.9
2003-08-26,50.18
2003-08-27,48.38
2003-08-28,49.64
2003-08-29,49.64
2003-08-30,64.22
2003-08-31,60.44
2003-09-01,62.24
2003-09-02,53.6
2003-09-03,56.12
2003-09-04,61.88
2003-09-05,53.78
2003-09-06,50.36
2003-09-07,50.36
2003-09-08,44.78
2003-09-09,42.8
2003-09-10,36.68
2003-09-11,41.9